,,Stat5,,Stat1,,Stat2,,Stat3,,Stat4,,Wind1,,Wind1,
time,status,PA1M_AVG,status,PR1M_SUM,status,RH1M_AVG,status,SR1M_AVG,status,TA1M_AVG,status,W1dAve1m,status,W1sAve1m,
2001-06-21, 00:00:00,VALID,918.451,VALID,0,VALID,93.5151,VALID,-0.0169808,VALID,18.1239,VALID,88,VALID,1.03041,
2001-06-21, 00:01:00,VALID,918.442,VALID,0,VALID,93.3727,VALID,0,VALID,18.1435,VALID,91,VALID,0.956473,
2001-06-21, 00:02:00,VALID,918.416,VALID,0,VALID,93.5252,VALID,-0.0339617,VALID,18.1597,VALID,97,VALID,0.976563,
2001-06-21, 00:03:00,VALID,918.411,VALID,0,VALID,93.3637,VALID,-0.0169808,VALID,18.1982,VALID,107,VALID,0.957237,
2001-06-21, 00:04:00,VALID,918.395,VALID,0,VALID,93.215,VALID,0,VALID,18.2303,VALID,114,VALID,1.02724,
2001-06-21, 00:05:00,VALID,918.373,VALID,0,VALID,93.0942,VALID,0,VALID,18.2561,VALID,103,VALID,1.02302,
2001-06-21, 00:06:00,VALID,918.351,VALID,0,VALID,93.0687,VALID,-0.0169808,VALID,18.2757,VALID,104,VALID,1.3341,
2001-06-21, 00:07:00,VALID,918.328,VALID,0,VALID,92.9975,VALID,0,VALID,18.2891,VALID,107,VALID,1.33467,
2001-06-21, 00:08:00,VALID,918.31,VALID,0,VALID,92.8933,VALID,0,VALID,18.3015,VALID,100,VALID,1.19748,
2001-06-21, 00:09:00,VALID,918.287,VALID,0,VALID,92.8017,VALID,0,VALID,18.3244,VALID,99,VALID,1.27534,
2001-06-21, 00:10:00,VALID,918.283,VALID,0,VALID,92.8716,VALID,0,VALID,18.3214,VALID,107,VALID,1.24873,
2001-06-21, 00:11:00,VALID,918.264,VALID,0,VALID,92.7648,VALID,-0.0169808,VALID,18.3112,VALID,111,VALID,1.27129,
2001-06-21, 00:12:00,VALID,918.258,VALID,0,VALID,92.8856,VALID,-0.0339617,VALID,18.3184,VALID,109,VALID,1.19591,
2001-06-21, 00:13:00,VALID,918.24,VALID,0,VALID,92.8615,VALID,0,VALID,18.3149,VALID,122,VALID,1.06504,
2001-06-21, 00:14:00,VALID,918.218,VALID,0,VALID,92.6923,VALID,-0.0339617,VALID,18.334,VALID,128,VALID,0.624178,
2001-06-21, 00:15:00,VALID,918.186,VALID,0,VALID,92.6606,VALID,-0.0339617,VALID,18.3338,VALID,120,VALID,0.765039,
2001-06-21, 00:16:00,VALID,918.166,VALID,0,VALID,92.6847,VALID,-0.0169808,VALID,18.337,VALID,109,VALID,0.669872,
2001-06-21, 00:17:00,VALID,918.148,VALID,0,VALID,92.7267,VALID,-0.0169808,VALID,18.3504,VALID,112,VALID,0.912695,
2001-06-21, 00:18:00,VALID,918.118,VALID,0,VALID,92.7292,VALID,-0.0339617,VALID,18.3599,VALID,108,VALID,1.11061,
2001-06-21, 00:19:00,VALID,918.093,VALID,0,VALID,92.6084,VALID,-0.0169808,VALID,18.3889,VALID,107,VALID,1.15078,
2001-06-21, 00:20:00,VALID,918.079,VALID,0,VALID,92.3783,VALID,0,VALID,18.4401,VALID,117,VALID,0.964744,
2001-06-21, 00:21:00,VALID,918.051,VALID,0,VALID,92.012,VALID,-0.0169808,VALID,18.4602,VALID,119,VALID,0.67207,
2001-06-21, 00:22:00,VALID,918.035,VALID,0,VALID,92.1723,VALID,-0.0509425,VALID,18.4508,VALID,128,VALID,0.721217,
2001-06-21, 00:23:00,VALID,918.012,VALID,0,VALID,92.1951,VALID,0,VALID,18.4247,VALID,91,VALID,0.609766,
2001-06-21, 00:24:00,VALID,917.993,VALID,0,VALID,91.9039,VALID,-0.0339617,VALID,18.3728,VALID,83,VALID,0.419271,
2001-06-21, 00:25:00,VALID,917.967,VALID,0,VALID,91.6573,VALID,-0.0339617,VALID,18.2856,VALID,63,VALID,0.464258,
2001-06-21, 00:26:00,VALID,917.954,VALID,0,VALID,92.1532,VALID,-0.0169808,VALID,18.1502,VALID,54,VALID,0.644531,
2001-06-21, 00:27:00,VALID,917.927,VALID,0,VALID,93.112,VALID,-0.0339617,VALID,18.0725,VALID,54,VALID,0.565234,
2001-06-21, 00:28:00,VALID,917.913,VALID,0,VALID,94.0326,VALID,-0.0169808,VALID,18.0822,VALID,71,VALID,0.504207,
2001-06-21, 00:29:00,VALID,917.899,VALID,0,VALID,94.1738,VALID,-0.0169808,VALID,18.1115,VALID,82,VALID,0.45918,
2001-06-21, 00:30:00,VALID,917.887,VALID,0,VALID,93.9703,VALID,-0.0339617,VALID,18.1438,VALID,91,VALID,0.665296,
2001-06-21, 00:31:00,VALID,917.863,VALID,0,VALID,94.0746,VALID,-0.0509425,VALID,18.1862,VALID,91,VALID,0.605859,
2001-06-21, 00:32:00,VALID,917.844,VALID,0,VALID,93.4464,VALID,-0.0169808,VALID,18.2017,VALID,91,VALID,0.149639,
2001-06-21, 00:33:00,VALID,917.847,VALID,0,VALID,92.8322,VALID,-0.0169808,VALID,18.189,VALID,82,VALID,0.000390625,
2001-06-21, 00:34:00,VALID,917.835,VALID,0,VALID,93.0433,VALID,0,VALID,18.1569,VALID,358,VALID,0.176192,
2001-06-21, 00:35:00,VALID,917.818,VALID,0,VALID,93.613,VALID,-0.0509425,VALID,18.1668,VALID,307,VALID,0.192578,
2001-06-21, 00:36:00,VALID,917.803,VALID,0,VALID,93.8063,VALID,0,VALID,18.1698,VALID,196,VALID,0.417668,
2001-06-21, 00:37:00,VALID,917.784,VALID,0,VALID,93.7897,VALID,-0.0509425,VALID,18.1636,VALID,169,VALID,0.38418,
2001-06-21, 00:38:00,VALID,917.761,VALID,0,VALID,92.9441,VALID,-0.0339617,VALID,18.105,VALID,141,VALID,0.52611,
2001-06-21, 00:39:00,VALID,917.731,VALID,0,VALID,93.1641,VALID,-0.0169808,VALID,18.0469,VALID,109,VALID,0.298438,
2001-06-21, 00:40:00,VALID,917.728,VALID,0,VALID,93.4655,VALID,-0.0169808,VALID,17.9982,VALID,108,VALID,0.0108173,
2001-06-21, 00:41:00,VALID,917.73,VALID,0,VALID,93.2785,VALID,0.0339617,VALID,17.921,VALID,108,VALID,0.349219,
2001-06-21, 00:42:00,VALID,917.701,VALID,0,VALID,94.189,VALID,0.0509425,VALID,17.9078,VALID,108,VALID,0.134046,
2001-06-21, 00:43:00,VALID,917.684,VALID,0,VALID,94.3607,VALID,0.0679233,VALID,17.891,VALID,108,VALID,0.00195313,
2001-06-21, 00:44:00,VALID,917.658,VALID,0,VALID,94.0619,VALID,0.0679233,VALID,17.8589,VALID,82,VALID,0.522636,
2001-06-21, 00:45:00,VALID,917.631,VALID,0,VALID,93.7656,VALID,0.0849042,VALID,17.7716,VALID,54,VALID,0.795508,
2001-06-21, 00:46:00,VALID,917.617,VALID,0,VALID,93.4706,VALID,0.101885,VALID,17.6622,VALID,51,VALID,0.695929,
2001-06-21, 00:47:00,VALID,917.62,VALID,0,VALID,94.5273,VALID,0.0509425,VALID,17.591,VALID,54,VALID,0.619531,
2001-06-21, 00:48:00,VALID,917.606,VALID,0,VALID,95.8803,VALID,0.0679233,VALID,17.6426,VALID,55,VALID,0.112981,
2001-06-21, 00:49:00,VALID,917.6,VALID,0,VALID,95.9604,VALID,0.0339617,VALID,17.6943,VALID,95,VALID,0.168555,
2001-06-21, 00:50:00,VALID,917.589,VALID,0,VALID,95.0105,VALID,0.0509425,VALID,17.662,VALID,149,VALID,0.272204,
2001-06-21, 00:51:00,VALID,917.559,VALID,0,VALID,94.9278,VALID,0.0679233,VALID,17.5912,VALID,149,VALID,0.0125,
2001-06-21, 00:52:00,VALID,917.539,VALID,0,VALID,94.5756,VALID,0.0849042,VALID,17.5327,VALID,125,VALID,0,
2001-06-21, 00:53:00,VALID,917.514,VALID,0,VALID,94.2882,VALID,0.0849042,VALID,17.4363,VALID,34,VALID,0.541992,
2001-06-21, 00:54:00,VALID,917.509,VALID,0,VALID,94.8846,VALID,0.0679233,VALID,17.385,VALID,30,VALID,0.600946,
2001-06-21, 00:55:00,VALID,917.51,VALID,0,VALID,95.3157,VALID,0.0509425,VALID,17.3461,VALID,30,VALID,0.366016,
2001-06-21, 00:56:00,VALID,917.522,VALID,0,VALID,95.5306,VALID,-0.0339617,VALID,17.2916,VALID,3,VALID,0.332332,
2001-06-21, 00:57:00,VALID,917.516,VALID,0,VALID,96.4207,VALID,-0.0339617,VALID,17.3407,VALID,316,VALID,0.183203,
2001-06-21, 00:58:00,VALID,917.505,VALID,0,VALID,96.441,VALID,-0.0679233,VALID,17.3799,VALID,3,VALID,0.321957,
2001-06-21, 00:59:00,VALID,917.474,VALID,0,VALID,96.0557,VALID,-0.0679233,VALID,17.3313,VALID,39,VALID,0.637305,
2001-06-21, 01:00:00,VALID,917.453,VALID,0,VALID,96.4372,VALID,-0.0679233,VALID,17.3575,VALID,39,VALID,0.188702,
2001-06-21, 01:01:00,VALID,917.436,VALID,0,VALID,96.2401,VALID,-0.0509425,VALID,17.3573,VALID,39,VALID,0.0691406,
2001-06-21, 01:02:00,VALID,917.426,VALID,0,VALID,96.1524,VALID,-0.0509425,VALID,17.3504,VALID,39,VALID,0.0374178,
2001-06-21, 01:03:00,VALID,917.401,VALID,0,VALID,96.0138,VALID,-0.0339617,VALID,17.3181,VALID,41,VALID,0.18125,
2001-06-21, 01:04:00,VALID,917.387,VALID,0,VALID,96.7717,VALID,-0.0509425,VALID,17.3571,VALID,41,VALID,0,
2001-06-21, 01:05:00,VALID,917.385,VALID,0,VALID,96.9217,VALID,-0.0509425,VALID,17.4283,VALID,41,VALID,0,
2001-06-21, 01:06:00,VALID,917.368,VALID,0,VALID,96.5402,VALID,-0.0509425,VALID,17.4445,VALID,41,VALID,0,
2001-06-21, 01:07:00,VALID,917.368,VALID,0,VALID,95.9642,VALID,-0.0679233,VALID,17.3995,VALID,41,VALID,0,
2001-06-21, 01:08:00,VALID,917.345,VALID,0,VALID,95.907,VALID,-0.0679233,VALID,17.3799,VALID,42,VALID,0,
2001-06-21, 01:09:00,VALID,917.308,VALID,0,VALID,95.2381,VALID,-0.0679233,VALID,17.3446,VALID,120,VALID,0.111719,
2001-06-21, 01:10:00,VALID,917.273,VALID,0,VALID,95.3119,VALID,-0.0679233,VALID,17.2893,VALID,121,VALID,0.0328947,
2001-06-21, 01:11:00,VALID,917.262,VALID,0,VALID,95.6005,VALID,-0.0509425,VALID,17.2635,VALID,121,VALID,0,
2001-06-21, 01:12:00,VALID,917.242,VALID,0,VALID,96.0176,VALID,-0.0509425,VALID,17.2475,VALID,119,VALID,0.0286458,
2001-06-21, 01:13:00,VALID,917.214,VALID,0,VALID,96.7615,VALID,-0.0339617,VALID,17.325,VALID,66,VALID,0.827148,
2001-06-21, 01:14:00,VALID,917.174,VALID,0,VALID,96.3329,VALID,-0.0339617,VALID,17.4318,VALID,55,VALID,1.0148,
2001-06-21, 01:15:00,VALID,917.181,VALID,0,VALID,95.8599,VALID,-0.0339617,VALID,17.5026,VALID,52,VALID,0.745508,
2001-06-21, 01:16:00,VALID,917.184,VALID,0,VALID,95.2038,VALID,-0.0509425,VALID,17.5637,VALID,46,VALID,0.125401,
2001-06-21, 01:17:00,VALID,917.187,VALID,0,VALID,94.6087,VALID,-0.0679233,VALID,17.5902,VALID,46,VALID,0.200586,
2001-06-21, 01:18:00,VALID,917.197,VALID,0,VALID,94.4764,VALID,-0.0509425,VALID,17.6158,VALID,46,VALID,0.341488,
2001-06-21, 01:19:00,VALID,917.203,VALID,0,VALID,94.3098,VALID,-0.0339617,VALID,17.6253,VALID,57,VALID,0.420312,
2001-06-21, 01:20:00,VALID,917.21,VALID,0,VALID,93.6995,VALID,-0.0339617,VALID,17.6259,VALID,58,VALID,0.0564904,
2001-06-21, 01:21:00,VALID,917.232,VALID,0,VALID,93.4935,VALID,-0.0169808,VALID,17.5831,VALID,58,VALID,0.003125,
2001-06-21, 01:22:00,VALID,917.233,VALID,0,VALID,93.4947,VALID,-0.0169808,VALID,17.5639,VALID,114,VALID,0.455387,
2001-06-21, 01:23:00,VALID,917.211,VALID,0,VALID,93.7223,VALID,-0.101885,VALID,17.5028,VALID,121,VALID,0.544727,
2001-06-21, 01:24:00,VALID,917.198,VALID,0,VALID,94.348,VALID,-0.0679233,VALID,17.4806,VALID,88,VALID,0.539864,
2001-06-21, 01:25:00,VALID,917.177,VALID,0,VALID,94.7536,VALID,-0.0679233,VALID,17.4933,VALID,83,VALID,0.621484,
2001-06-21, 01:26:00,VALID,917.141,VALID,0,VALID,94.4217,VALID,-0.101885,VALID,17.5551,VALID,84,VALID,0.812706,
2001-06-21, 01:27:00,VALID,917.124,VALID,0,VALID,94.0466,VALID,-0.101885,VALID,17.61,VALID,83,VALID,0.733789,
2001-06-21, 01:28:00,VALID,917.113,VALID,0,VALID,93.8419,VALID,-0.101885,VALID,17.6584,VALID,90,VALID,0.621394,
2001-06-21, 01:29:00,VALID,917.091,VALID,0,VALID,93.5914,VALID,-0.118866,VALID,17.7039,VALID,108,VALID,0.746094,
2001-06-21, 01:30:00,VALID,917.082,VALID,0,VALID,93.229,VALID,-0.152827,VALID,17.691,VALID,127,VALID,0.467311,
2001-06-21, 01:31:00,VALID,917.066,VALID,0,VALID,93.6918,VALID,-0.0849042,VALID,17.675,VALID,118,VALID,0.59668,
2001-06-21, 01:32:00,VALID,917.027,VALID,0,VALID,94.0224,VALID,-0.101885,VALID,17.6492,VALID,109,VALID,0.856571,
2001-06-21, 01:33:01,VALID,917.005,VALID,0,VALID,94.1356,VALID,-0.101885,VALID,17.688,VALID,83,VALID,0.773838,
2001-06-21, 01:34:00,VALID,916.959,VALID,0,VALID,93.8788,VALID,-0.101885,VALID,17.7043,VALID,91,VALID,0.542352,
2001-06-21, 01:35:00,VALID,916.956,VALID,0,VALID,93.5227,VALID,-0.118866,VALID,17.7004,VALID,106,VALID,0.126563,
2001-06-21, 01:36:00,VALID,916.956,VALID,0,VALID,93.3332,VALID,-0.118866,VALID,17.688,VALID,124,VALID,0.246595,
2001-06-21, 01:37:00,VALID,916.981,VALID,0,VALID,93.2442,VALID,-0.101885,VALID,17.6458,VALID,155,VALID,0.515039,
2001-06-21, 01:38:00,VALID,916.979,VALID,0,VALID,93.2112,VALID,-0.101885,VALID,17.5906,VALID,126,VALID,0.564967,
2001-06-21, 01:39:01,VALID,916.981,VALID,0,VALID,93.8253,VALID,-0.118866,VALID,17.536,VALID,129,VALID,0.481641,
2001-06-21, 01:40:00,VALID,916.989,VALID,0,VALID,93.4833,VALID,-0.101885,VALID,17.4746,VALID,88,VALID,0.327925,
2001-06-21, 01:41:00,VALID,916.99,VALID,0,VALID,93.4299,VALID,-0.0509425,VALID,17.3642,VALID,68,VALID,0.311523,
2001-06-21, 01:42:00,VALID,917.013,VALID,0,VALID,93.4757,VALID,0,VALID,17.257,VALID,36,VALID,0,
2001-06-21, 01:43:00,VALID,917.01,VALID,0,VALID,94.5743,VALID,0,VALID,17.1858,VALID,36,VALID,0,
2001-06-21, 01:44:00,VALID,917.024,VALID,0,VALID,95.57,VALID,0,VALID,17.2376,VALID,36,VALID,0,
2001-06-21, 01:45:01,VALID,917.033,VALID,0,VALID,95.6933,VALID,0,VALID,17.2701,VALID,36,VALID,0,
2001-06-21, 01:46:00,VALID,917.027,VALID,0,VALID,95.9718,VALID,0,VALID,17.3056,VALID,40,VALID,0,
2001-06-21, 01:47:00,VALID,917,VALID,0,VALID,95.8116,VALID,0.0169808,VALID,17.3248,VALID,75,VALID,0,
2001-06-21, 01:48:00,VALID,916.973,VALID,0,VALID,95.1796,VALID,0.0169808,VALID,17.3444,VALID,76,VALID,0,
2001-06-21, 01:49:00,VALID,916.946,VALID,0,VALID,94.8185,VALID,0.0169808,VALID,17.322,VALID,76,VALID,0,
2001-06-21, 01:50:00,VALID,916.934,VALID,0,VALID,95.0423,VALID,-0.0169808,VALID,17.3183,VALID,87,VALID,0.126028,
2001-06-21, 01:51:01,VALID,916.907,VALID,0,VALID,95.2851,VALID,-0.0169808,VALID,17.3476,VALID,114,VALID,0.825586,
2001-06-21, 01:52:00,VALID,916.875,VALID,0,VALID,95.2699,VALID,0,VALID,17.3442,VALID,104,VALID,0.478766,
2001-06-21, 01:53:00,VALID,916.868,VALID,0,VALID,94.9609,VALID,0,VALID,17.3442,VALID,89,VALID,0.0189453,
2001-06-21, 01:54:00,VALID,916.85,VALID,0,VALID,94.3327,VALID,0,VALID,17.3052,VALID,96,VALID,0.174137,
2001-06-21, 01:55:00,VALID,916.838,VALID,0,VALID,94.334,VALID,0,VALID,17.2605,VALID,120,VALID,0.341211,
2001-06-21, 01:56:00,VALID,916.828,VALID,0,VALID,94.6811,VALID,-0.0169808,VALID,17.2153,VALID,120,VALID,0.171274,
2001-06-21, 01:57:01,VALID,916.819,VALID,0,VALID,94.8503,VALID,-0.0169808,VALID,17.1858,VALID,122,VALID,0.164453,
2001-06-21, 01:58:00,VALID,916.817,VALID,0,VALID,95.2305,VALID,0,VALID,17.1565,VALID,135,VALID,0.622944,
2001-06-21, 01:59:00,VALID,916.804,VALID,0,VALID,95.6615,VALID,0,VALID,17.186,VALID,140,VALID,0.655469,
2001-06-21, 02:00:00,VALID,916.803,VALID,0,VALID,95.6208,VALID,0.0169808,VALID,17.2148,VALID,145,VALID,0.363982,
2001-06-21, 02:01:00,VALID,916.794,VALID,0,VALID,95.3983,VALID,0,VALID,17.2146,VALID,144,VALID,0.00761719,
2001-06-21, 02:02:00,VALID,916.791,VALID,0,VALID,94.9965,VALID,0,VALID,17.2252,VALID,144,VALID,0,
2001-06-21, 02:03:01,VALID,916.79,VALID,0,VALID,94.2729,VALID,-0.0339617,VALID,17.141,VALID,144,VALID,0,
2001-06-21, 02:04:00,VALID,916.774,VALID,0,VALID,94.423,VALID,0.0169808,VALID,17.093,VALID,144,VALID,0,
2001-06-21, 02:05:00,VALID,916.781,VALID,0,VALID,95.0308,VALID,0,VALID,17.0696,VALID,144,VALID,0.144531,
2001-06-21, 02:06:00,VALID,916.739,VALID,0,VALID,95.1834,VALID,0,VALID,17.0726,VALID,145,VALID,0.709087,
2001-06-21, 02:07:00,VALID,916.724,VALID,0,VALID,95.3754,VALID,0,VALID,17.0861,VALID,136,VALID,0.480273,
2001-06-21, 02:08:00,VALID,916.688,VALID,0,VALID,95.6094,VALID,0.0169808,VALID,17.0891,VALID,135,VALID,0.0408654,
2001-06-21, 02:09:01,VALID,916.634,VALID,0,VALID,95.1313,VALID,0.0169808,VALID,17.0597,VALID,125,VALID,0.113477,
2001-06-21, 02:10:00,VALID,916.609,VALID,0,VALID,94.6557,VALID,0.0169808,VALID,16.999,VALID,63,VALID,0.527344,
2001-06-21, 02:11:00,VALID,916.593,VALID,0,VALID,94.98,VALID,0,VALID,16.9312,VALID,61,VALID,0.69082,
2001-06-21, 02:12:00,VALID,916.604,VALID,0,VALID,95.3042,VALID,-0.0169808,VALID,16.8888,VALID,60,VALID,0.393229,
2001-06-21, 02:13:00,VALID,916.605,VALID,0,VALID,95.6933,VALID,0,VALID,16.8664,VALID,60,VALID,0.289258,
2001-06-21, 02:14:00,VALID,916.594,VALID,0,VALID,96.2452,VALID,0.0169808,VALID,16.898,VALID,60,VALID,0.197368,
2001-06-21, 02:15:01,VALID,916.587,VALID,0,VALID,96.0634,VALID,0,VALID,16.9572,VALID,60,VALID,0.175781,
2001-06-21, 02:16:00,VALID,916.563,VALID,0,VALID,95.72,VALID,0,VALID,16.9632,VALID,60,VALID,0.133013,
2001-06-21, 02:17:00,VALID,916.538,VALID,0,VALID,95.7366,VALID,0,VALID,16.9734,VALID,60,VALID,0.0244141,
2001-06-21, 02:18:00,VALID,916.509,VALID,0,VALID,95.6488,VALID,0,VALID,16.9669,VALID,60,VALID,0.0668174,
2001-06-21, 02:19:00,VALID,916.486,VALID,0,VALID,95.5738,VALID,0,VALID,16.9667,VALID,78,VALID,0.243164,
2001-06-21, 02:20:00,VALID,916.465,VALID,0,VALID,95.4619,VALID,0,VALID,16.9729,VALID,90,VALID,0.241386,
2001-06-21, 02:21:01,VALID,916.451,VALID,0,VALID,95.2584,VALID,0,VALID,16.9828,VALID,91,VALID,0.164258,
2001-06-21, 02:22:00,VALID,916.425,VALID,0,VALID,94.6875,VALID,-0.0339617,VALID,17.0312,VALID,91,VALID,0,
2001-06-21, 02:23:00,VALID,916.403,VALID,0,VALID,93.9309,VALID,0,VALID,17.1021,VALID,85,VALID,0.324805,
2001-06-21, 02:24:00,VALID,916.365,VALID,0,VALID,93.1705,VALID,0,VALID,17.1666,VALID,67,VALID,0.559495,
2001-06-21, 02:25:00,VALID,916.337,VALID,0,VALID,92.597,VALID,0,VALID,17.1858,VALID,64,VALID,0.122852,
2001-06-21, 02:26:00,VALID,916.315,VALID,0,VALID,92.4635,VALID,-0.0169808,VALID,17.2316,VALID,57,VALID,0.0298109,
2001-06-21, 02:27:01,VALID,916.306,VALID,0,VALID,91.9993,VALID,-0.0679233,VALID,17.2706,VALID,26,VALID,0.249414,
2001-06-21, 02:28:00,VALID,916.291,VALID,0,VALID,91.8938,VALID,-0.0509425,VALID,17.2443,VALID,26,VALID,0.361579,
2001-06-21, 02:29:01,VALID,916.277,VALID,0,VALID,92.1405,VALID,-0.0169808,VALID,17.1707,VALID,21,VALID,0.479297,
2001-06-21, 02:30:00,VALID,916.281,VALID,0,VALID,92.6555,VALID,-0.0169808,VALID,17.0962,VALID,13,VALID,0.55222,
2001-06-21, 02:31:01,VALID,916.282,VALID,0,VALID,93.0764,VALID,-0.0509425,VALID,17.0577,VALID,359,VALID,0.683984,
2001-06-21, 02:32:00,VALID,916.269,VALID,0,VALID,93.1247,VALID,-0.0339617,VALID,17.0185,VALID,336,VALID,0.577123,
2001-06-21, 02:33:01,VALID,916.253,VALID,0,VALID,93.0459,VALID,-0.0339617,VALID,17.1253,VALID,326,VALID,0.191406,
2001-06-21, 02:34:00,VALID,916.229,VALID,0,VALID,92.4584,VALID,-0.0509425,VALID,17.1961,VALID,345,VALID,0.289885,
2001-06-21, 02:35:01,VALID,916.198,VALID,0,VALID,91.6293,VALID,-0.0339617,VALID,17.271,VALID,26,VALID,0.867773,
2001-06-21, 02:36:00,VALID,916.195,VALID,0,VALID,90.331,VALID,0,VALID,17.4186,VALID,35,VALID,0.902043,
2001-06-21, 02:37:01,VALID,916.186,VALID,0,VALID,89.3646,VALID,-0.0339617,VALID,17.545,VALID,12,VALID,0.47207,
2001-06-21, 02:38:00,VALID,916.2,VALID,0,VALID,89.6303,VALID,-0.0339617,VALID,17.4871,VALID,16,VALID,0.346834,
2001-06-21, 02:39:01,VALID,916.201,VALID,0,VALID,90.3335,VALID,-0.0679233,VALID,17.4059,VALID,16,VALID,0.125977,
2001-06-21, 02:40:00,VALID,916.207,VALID,0,VALID,90.5764,VALID,-0.0679233,VALID,17.3614,VALID,16,VALID,0.139824,
2001-06-21, 02:41:01,VALID,916.206,VALID,0,VALID,90.7442,VALID,-0.0849042,VALID,17.3351,VALID,16,VALID,0.0640625,
2001-06-21, 02:42:00,VALID,916.194,VALID,0,VALID,91.0138,VALID,-0.0169808,VALID,17.3515,VALID,16,VALID,0.0902549,
2001-06-21, 02:43:01,VALID,916.178,VALID,0,VALID,91.0812,VALID,-0.0509425,VALID,17.3508,VALID,16,VALID,0,
2001-06-21, 02:44:01,VALID,916.144,VALID,0,VALID,91.1321,VALID,-0.0849042,VALID,17.3775,VALID,16,VALID,0.000200321,
2001-06-21, 02:45:01,VALID,916.123,VALID,0,VALID,90.8701,VALID,-0.0679233,VALID,17.3999,VALID,16,VALID,0.189453,
2001-06-21, 02:46:00,VALID,916.089,VALID,0,VALID,90.434,VALID,-0.0849042,VALID,17.4385,VALID,16,VALID,0.277961,
2001-06-21, 02:47:01,VALID,916.06,VALID,0,VALID,89.6863,VALID,-0.0849042,VALID,17.4972,VALID,39,VALID,0.450195,
2001-06-21, 02:48:01,VALID,916.041,VALID,0,VALID,88.6868,VALID,-0.0509425,VALID,17.5741,VALID,63,VALID,0.508814,
2001-06-21, 02:49:01,VALID,916.012,VALID,0,VALID,87.8018,VALID,-0.0169808,VALID,17.7295,VALID,64,VALID,0.529688,
2001-06-21, 02:50:01,VALID,916.002,VALID,0,VALID,87.3147,VALID,-0.0339617,VALID,17.8649,VALID,78,VALID,0.394531,
2001-06-21, 02:51:01,VALID,915.988,VALID,0,VALID,87.2359,VALID,-0.0679233,VALID,17.9391,VALID,90,VALID,0.333398,
2001-06-21, 02:52:01,VALID,915.989,VALID,0,VALID,87.2588,VALID,-0.0339617,VALID,17.9452,VALID,90,VALID,0.272436,
2001-06-21, 02:53:01,VALID,915.965,VALID,0,VALID,87.068,VALID,-0.0339617,VALID,17.9518,VALID,90,VALID,0.346094,
2001-06-21, 02:54:01,VALID,915.968,VALID,0,VALID,86.9956,VALID,-0.0339617,VALID,17.9712,VALID,88,VALID,0.451069,
2001-06-21, 02:55:01,VALID,915.946,VALID,0,VALID,87.2829,VALID,-0.101885,VALID,17.9615,VALID,82,VALID,0.45293,
2001-06-21, 02:56:01,VALID,915.941,VALID,0,VALID,87.8132,VALID,-0.0339617,VALID,17.8969,VALID,80,VALID,0.560697,
2001-06-21, 02:57:01,VALID,915.924,VALID,0,VALID,87.6034,VALID,-0.0339617,VALID,17.852,VALID,80,VALID,0.647266,
2001-06-21, 02:58:01,VALID,915.908,VALID,0,VALID,87.8119,VALID,-0.0339617,VALID,17.8713,VALID,80,VALID,0.601768,
2001-06-21, 02:59:01,VALID,915.472,VALID,0,VALID,88.1286,VALID,-0.0169808,VALID,17.8294,VALID,80,VALID,0.563477,
2001-06-21, 03:00:01,VALID,915.899,VALID,0,VALID,88.3689,VALID,-0.0679233,VALID,17.7846,VALID,80,VALID,0.459535,
2001-06-21, 03:01:01,VALID,915.902,VALID,0,VALID,88.168,VALID,-0.0339617,VALID,17.7583,VALID,79,VALID,0.381641,
2001-06-21, 03:02:01,VALID,915.918,VALID,0,VALID,88.3282,VALID,-0.0339617,VALID,17.745,VALID,79,VALID,0.332442,
2001-06-21, 03:03:01,VALID,915.919,VALID,0,VALID,88.5876,VALID,-0.101885,VALID,17.6679,VALID,60,VALID,0.333984,
2001-06-21, 03:04:01,VALID,915.924,VALID,0,VALID,89.4854,VALID,-0.0339617,VALID,17.5418,VALID,54,VALID,0.265825,
2001-06-21, 03:05:01,VALID,915.925,VALID,0,VALID,89.8554,VALID,-0.0509425,VALID,17.4901,VALID,54,VALID,0.0544922,
2001-06-21, 03:06:01,VALID,915.905,VALID,0,VALID,89.4065,VALID,-0.0169808,VALID,17.5323,VALID,54,VALID,0,
2001-06-21, 03:07:01,VALID,915.887,VALID,0,VALID,89.0772,VALID,-0.0509425,VALID,17.5941,VALID,54,VALID,0.06875,
2001-06-21, 03:08:00,VALID,915.87,VALID,0,VALID,89.0606,VALID,-0.0509425,VALID,17.5837,VALID,54,VALID,0.402444,
2001-06-21, 03:09:00,VALID,915.861,VALID,0,VALID,89.3302,VALID,-0.0849042,VALID,17.5579,VALID,54,VALID,0.495703,
2001-06-21, 03:10:00,VALID,915.857,VALID,0,VALID,89.437,VALID,-0.0679233,VALID,17.5323,VALID,54,VALID,0.443462,
2001-06-21, 03:11:00,VALID,915.864,VALID,0,VALID,89.7778,VALID,-0.0679233,VALID,17.4837,VALID,54,VALID,0.246289,
2001-06-21, 03:12:00,VALID,915.861,VALID,0,VALID,90.0525,VALID,-0.0509425,VALID,17.4255,VALID,54,VALID,0,
2001-06-21, 03:13:00,VALID,915.843,VALID,0,VALID,90.2954,VALID,-0.0339617,VALID,17.3795,VALID,54,VALID,0,
2001-06-21, 03:14:00,VALID,915.845,VALID,0,VALID,90.3577,VALID,-0.0169808,VALID,17.3771,VALID,54,VALID,0,
2001-06-21, 03:15:00,VALID,915.851,VALID,0,VALID,90.4009,VALID,-0.0169808,VALID,17.3638,VALID,54,VALID,0,
2001-06-21, 03:16:00,VALID,915.855,VALID,0,VALID,90.289,VALID,-0.0679233,VALID,17.3739,VALID,54,VALID,0,
2001-06-21, 03:17:00,VALID,915.855,VALID,0,VALID,89.9406,VALID,-0.0169808,VALID,17.4156,VALID,54,VALID,0,
2001-06-21, 03:18:00,VALID,915.847,VALID,0,VALID,89.3938,VALID,-0.0339617,VALID,17.4903,VALID,54,VALID,0.0182977,
2001-06-21, 03:19:00,VALID,915.848,VALID,0,VALID,89.0238,VALID,0,VALID,17.5478,VALID,54,VALID,0.267383,
2001-06-21, 03:20:00,VALID,915.84,VALID,0,VALID,88.9436,VALID,-0.0339617,VALID,17.5835,VALID,54,VALID,0.291066,
2001-06-21, 03:21:00,VALID,915.839,VALID,0,VALID,89.0149,VALID,-0.0169808,VALID,17.5898,VALID,54,VALID,0.242383,
2001-06-21, 03:22:00,VALID,915.823,VALID,0,VALID,89.0645,VALID,-0.0339617,VALID,17.5473,VALID,54,VALID,0.375617,
2001-06-21, 03:23:00,VALID,915.79,VALID,0,VALID,89.4358,VALID,-0.0169808,VALID,17.5129,VALID,54,VALID,0.299023,
2001-06-21, 03:24:00,VALID,915.785,VALID,0,VALID,89.6519,VALID,0,VALID,17.4477,VALID,54,VALID,0.125401,
2001-06-21, 03:25:00,VALID,915.78,VALID,0,VALID,89.7931,VALID,-0.0339617,VALID,17.4193,VALID,54,VALID,0.175781,
2001-06-21, 03:26:00,VALID,915.788,VALID,0,VALID,89.9673,VALID,0,VALID,17.344,VALID,54,VALID,0.0633224,
2001-06-21, 03:27:00,VALID,915.804,VALID,0,VALID,90.3857,VALID,0,VALID,17.2762,VALID,53,VALID,0.225977,
2001-06-21, 03:28:00,VALID,915.834,VALID,0,VALID,90.9808,VALID,0,VALID,17.2174,VALID,28,VALID,0.209736,
2001-06-21, 03:29:00,VALID,915.841,VALID,0,VALID,90.9477,VALID,0.0339617,VALID,17.2471,VALID,356,VALID,0.270508,
2001-06-21, 03:30:00,VALID,915.846,VALID,0,VALID,90.9948,VALID,0.0339617,VALID,17.2501,VALID,3,VALID,0.550576,
2001-06-21, 03:31:00,VALID,915.846,VALID,0,VALID,91.0418,VALID,0,VALID,17.2564,VALID,11,VALID,0.455664,
2001-06-21, 03:32:00,VALID,915.844,VALID,0,VALID,90.8867,VALID,0.0339617,VALID,17.3052,VALID,1,VALID,0.484776,
2001-06-21, 03:33:00,VALID,915.838,VALID,0,VALID,90.6209,VALID,0,VALID,17.3306,VALID,359,VALID,0.498047,
2001-06-21, 03:34:00,VALID,915.833,VALID,0,VALID,90.3157,VALID,0,VALID,17.4154,VALID,5,VALID,0.599918,